Location: Lalanne
(43.7962°N, 0.6835°E)
Time: 07:20:31
(UTC+00:00)

Daily predictions for brighter satellites

Satellite Brightness Start Highest point End
(mag) Time Altitude Azimuth Time Altitude Azimuth Time Altitude Azimuth
Meteor 2-20 4.5 20:06:44 10° S 20:12:47 70° E 20:18:50 10° NNE
SL-8 R/B 3.9 20:11:44 10° WNW 20:16:33 73° NNE 20:21:20 10° ESE
Cosmos 1452 Rocket 3.5 20:12:48 10° SSW 20:18:04 79° ESE 20:23:22 10° NNE
Resurs 1-3 3.8 20:14:22 10° S 20:18:45 78° WSW 20:23:10 10° NNW
SL-4 R/B 4.0 20:18:09 10° SE 20:18:57 10° SE 20:19:44 10° ESE
Cosmos 2219 Rocket 3.5 20:17:33 10° SSE 20:21:42 21° E 20:25:51 10° NE
Cosmos 2333 Rocket 3.2 20:18:17 10° SSE 20:22:55 26° ESE 20:27:32 10° NE
FALCON 9 DEB 3.7 20:21:40 10° SSW 20:24:26 30° SE 20:27:14 10° ENE
Cosmos 1850 Rocket 4.1 20:22:39 10° NNW 20:27:57 72° ENE 20:33:11 10° SSE
Cosmos 1758 3.3 20:24:03 10° N 20:28:03 88° W 20:32:00 10° S
Lacrosse 5 rocket 0.9 20:24:25 10° SW 20:28:07 69° SE 20:31:44 10° NE
Cosmos 1025 Rocket 4.1 20:24:30 10° SSE 20:28:11 27° E 20:31:51 10° NNE
ERS-1 Rocket 4.5 20:24:50 10° ESE 20:28:41 23° ENE 20:32:33 10° NNE
Cosmos 1844 4.2 20:25:18 10° NNW 20:30:41 46° ENE 20:36:03 10° SE
Spot 2 Rocket 4.4 20:28:45 10° SE 20:33:19 35° ENE 20:37:54 10° N
Cosmos 1727 Rocket 4.0 20:27:32 10° S 20:33:51 79° E 20:40:08 10° N
Cosmos 1331 Rocket 4.2 20:30:11 10° S 20:35:13 50° ESE 20:40:19 10° NNE
FALCON 9 DEB 2.8 20:36:57 10° SW 20:40:00 62° SE 20:43:05 10° ENE
CENTAUR R/B 4.3 20:35:58 10° WSW 20:41:37 38° NW 20:48:18 10° NNE
KORONAS-FOTON 3.8 20:38:33 10° S 20:42:17 64° E 20:46:03 10° NNE
Cosmos 1726 3.7 20:39:55 10° NNW 20:43:12 33° W 20:46:30 10° SSW
CARTOSAT-1 4.4 20:40:17 11° SE 20:43:56 35° ENE 20:47:52 10° N
Terra 3.4 20:41:29 10° ESE 20:45:01 21° ENE 20:48:33 10° NNE
Cosmos 2360 Rocket 2.2 20:39:58 10° SSW 20:45:38 84° ESE 20:51:18 10° NNE
SPOT 1/Viking Rocket 3.6 20:40:46 10° SSE 20:45:50 65° ENE 20:50:57 10° N
Cosmos 1674 2.5 20:42:38 10° S 20:46:20 72° E 20:50:02 10° NNE
OBJECT-B 3.7 20:44:54 10° WSW 20:46:22 13° W 20:47:50 10° WNW
FALCON 9 DEB 2.9 20:44:55 10° SW 20:47:58 55° SE 20:51:01 10° ENE
CZ-2C R/B 3.8 20:44:33 10° NNE 20:49:20 66° ESE 20:54:03 10° S
Cosmos 2322 Rocket 3.1 20:44:15 10° SW 20:49:49 55° WNW 20:55:27 10° NNE
SL-16 R/B 3.6 20:44:34 10° SW 20:49:57 43° WNW 20:55:22 10° NNE
FALCON 9 DEB 2.7 20:47:27 10° SW 20:50:33 74° SE 20:53:40 10° ENE
SPOT 5 3.9 20:48:16 12° SE 20:52:19 34° ENE 20:56:42 10° N
Cosmos 1953 2.3 20:48:15 10° N 20:52:19 74° E 20:56:03 12° SSE
USA 245 4.2 20:48:16 11° SSE 20:53:00 68° ENE 20:58:53 10° N
Cosmos 1975 Rocket 3.1 20:49:09 10° S 20:53:31 85° W 20:57:57 10° N
Cosmos 1802 Rocket 4.2 20:50:11 10° N 20:56:23 57° ENE 21:01:56 13° SSE
Cosmos 1459 Rocket 4.0 20:51:47 10° N 20:57:50 71° E 21:03:32 12° SSE
Cosmos 1741 Rocket 4.4 20:57:25 10° NNW 21:02:36 60° WSW 21:07:41 11° S
Cosmos 1300 3.9 21:00:57 10° NNE 21:04:17 28° ENE 21:06:19 17° ESE
Resurs 01 Rocket 2.6 21:00:44 10° S 21:04:55 43° W 21:09:08 10° NNW
Lacrosse 5 3.8 21:01:50 10° WNW 21:05:23 19° WSW 21:08:55 10° SSW
Meteor 1-16 Rocket 4.2 21:02:04 10° NNW 21:07:31 78° W 21:12:35 11° S
Cosmos 1000 Rocket 4.5 21:03:09 10° S 21:09:17 87° E 21:15:27 10° N
Cosmos 1340 2.9 21:07:27 16° SSE 21:10:12 49° E 21:13:52 10° NNE
Cosmos 2322 3.7 21:07:43 10° SSW 21:13:18 66° ESE 21:18:55 10° NNE
SPOT 3 Rocket 4.3 21:09:46 10° S 21:14:45 48° W 21:19:47 10° NNW
COSMOS 2428 3.0 21:09:36 10° S 21:15:03 47° ESE 21:20:32 10° NE
Aureole 1 Rocket 4.4 21:09:40 10° NNW 21:15:54 76° WSW 21:22:43 14° S
Cosmos 2278 Rocket 3.7 21:11:56 10° N 21:16:37 26° NE 21:20:55 11° ESE
Cosmos 1844 Rocket 3.0 21:12:20 10° NNW 21:17:58 64° WSW 21:22:30 16° S
Cosmos 389 Rocket 4.4 21:20:56 10° NNE 21:23:11 16° ENE 21:24:17 14° E
Cosmos 1867 4.4 21:19:44 10° NNW 21:24:57 43° NE 21:28:54 17° ESE
ATLAS 2A CENTAUR R/B 4.2 21:17:44 10° SW 21:25:22 17° SSW 21:27:33 15° S
Cosmos 1864 Rocket 4.5 21:20:40 10° N 21:26:52 72° E 21:31:19 19° SSE
Cosmos 968 Rocket 3.9 21:25:29 10° N 21:30:28 50° ENE 21:33:29 23° SE
Cosmos 1908 4.4 21:29:06 10° NNW 21:32:43 38° W 21:35:50 13° SSW
Cosmos 1626 2.8 21:29:34 10° SSW 21:33:10 51° W 21:36:48 10° N
Cosmos 2123 Rocket 4.0 21:29:46 11° S 21:35:47 87° E 21:42:09 10° N
Cosmos 1544 Rocket 4.0 21:31:47 10° NNW 21:36:11 59° W 21:39:22 18° S
Cosmos 2061 Rocket 4.1 21:31:38 10° N 21:38:06 89° WNW 21:42:50 19° S
Uosat 12 SS-18 rocket 4.0 21:35:22 10° SSW 21:39:39 70° ESE 21:44:32 10° NE
Meteor 2-10 Rocket 4.1 21:35:21 10° N 21:40:09 41° ENE 21:42:36 25° SE
ARIANE 5 R/B 3.0 21:38:34 20° S 21:41:34 60° W 21:46:01 10° NNW
Cosmos 2233 Rocket 4.1 21:35:47 10° N 21:41:53 59° E 21:45:35 24° SSE
Cosmos 1346 Rocket 3.3 21:47:04 32° SE 21:48:13 41° E 21:52:01 10° NNE
Cosmos 405 3.4 21:48:47 10° NNW 21:52:09 54° W 21:53:33 30° SSW
ATLAS CENTAUR R/B 2.0 21:48:09 10° NW 21:52:26 52° WSW 21:54:30 29° S
Cosmos 1980 4.3 21:51:14 27° SSE 21:53:26 37° ESE 21:58:38 10° NE
BREEZE-M DEB (TANK) 3.9 21:39:49 10° SW 21:54:36 54° SSE 21:58:39 10° ENE
ATLAS 3B R/B 3.0 21:48:58 10° SW 21:55:28 66° NW 22:02:13 10° NNE
SL-4 R/B 1.9 21:53:50 10° SW 21:57:59 60° SE 22:01:50 10° ENE
Centaur D AC-28 4.5 22:00:00 23° SSE 22:02:12 25° SE 22:22:27 10° E
CZ-4B DEB 4.2 22:03:26 53° S 22:04:03 74° WSW 22:07:14 10° NNW
Celestis-02/Orion 38 4.5 22:01:33 31° SSE 22:04:03 90° SSW 22:09:15 10° NNW
Cosmos 2219 Rocket 2.7 21:59:33 10° SW 22:05:09 59° WNW 22:10:47 10° NNE
Meteor 2-5 Rocket 3.9 22:01:10 16° SSW 22:05:37 70° WNW 22:11:15 10° N
Cosmos 2333 Rocket 3.1 22:01:16 10° SW 22:06:51 50° WNW 22:12:26 10° NNE
ERS-1 Rocket 3.6 22:04:07 22° SSW 22:07:08 48° W 22:12:02 10° NNW
Geosat 4.4 22:04:47 28° S 22:07:15 56° WSW 22:12:13 10° NW
Lacrosse 5 rocket 3.8 22:04:41 10° WNW 22:07:30 21° NNW 22:10:18 10° NNE
Cosmos 1536 Rocket 4.5 22:05:19 15° SSW 22:08:46 46° WNW 22:13:04 10° N
Cosmos 1607 4.5 22:02:43 10° NNW 22:08:59 53° NE 22:12:53 23° ESE
Cosmos 2228 3.0 22:08:14 10° N 22:12:40 76° E 22:14:06 42° SSE
Iridium 2 4.2 22:12:19 38° ESE 22:12:44 40° E 22:16:16 10° NNE
USA 215 3.4 22:15:11 10° ENE 22:21:28 48° SE 22:25:28 22° SSW
Terra 2.5 22:20:12 27° SSW 22:22:26 47° W 22:27:03 10° NNW
SL-16 R/B 3.5 22:23:55 21° ESE 22:24:27 22° E 22:28:39 10° NE
Cosmos 2237 Rocket 2.2 22:23:45 33° S 22:26:13 64° ESE 22:31:47 10° NNE
Cosmos 1184 Rocket 3.6 22:29:49 38° ENE 22:29:49 38° ENE 22:32:25 10° NNE
Cosmos 1455 2.4 22:25:47 10° N 22:29:33 54° E 22:29:59 50° ESE
SPOT 5 4.4 22:27:29 18° SW 22:30:22 30° W 22:34:40 10° NW
Cosmos 1464 Rocket 4.4 22:25:26 10° N 22:31:40 54° ENE 22:34:26 32° SE
H-2A R/B 4.4 22:30:15 10° N 22:34:08 44° WNW 22:36:20 23° SW
Cosmos 192 4.4 22:33:47 44° SSE 22:35:01 58° ESE 22:39:51 10° NNE
Cosmos 1503 Rocket 4.0 22:30:39 10° NNW 22:36:04 82° ENE 22:37:58 41° SSE
Meteor 1-24 Rocket 4.5 22:33:33 17° SW 22:37:30 46° WNW 22:42:47 10° N
GEOS 3 Rocket 4.3 22:38:08 24° ESE 22:41:10 51° NE 22:46:20 10° NNW
ATLAS CENTAUR R/B 3.0 22:40:45 40° S 22:42:17 54° ESE 22:52:33 10° NE
USA 267 4.2 22:48:35 10° E 22:54:45 46° NNE 23:00:56 10° NW
Okean 1-7 Rocket 3.6 22:54:15 56° SE 22:54:53 64° E 22:59:18 10° NNE
Cosmos 389 Rocket 3.9 22:54:54 10° NNW 22:57:51 27° W 22:58:04 27° W
BREEZE-M DEB (TANK) 3.7 22:55:45 10° WNW 22:58:49 46° N 23:06:42 10° ENE
COSMOS 2428 4.5 22:54:31 10° WSW 22:59:31 30° NW 23:04:33 10° N
Cosmos 2278 Rocket 2.5 22:55:31 10° NNW 23:01:03 56° WSW 23:02:45 40° SSW
Cosmos 1726 Rocket 4.2 22:58:43 10° NNW 23:03:01 48° W 23:03:59 41° SW
Cosmos 2058 Rocket 3.0 22:59:15 10° N 23:03:42 80° W 23:04:24 62° SSW
Cosmos 2034 Rocket 4.0 23:01:40 10° N 23:07:51 71° E 23:10:01 42° SSE
Centaur D AC-29 4.3 23:02:40 10° WSW 23:08:13 14° SW 23:09:10 13° SW
SJ 16-02 2.3 23:12:23 10° N 23:16:28 36° ENE 23:17:27 32° E
Meteor 1-21 Rocket 4.3 23:14:30 41° SSW 23:16:31 77° W 23:22:17 10° N
Spot 4 4.0 23:20:17 50° SSW 23:21:12 60° W 23:25:56 10° NNW
Cosmos 1777 Rocket 3.9 23:16:17 10° NNW 23:21:37 84° ENE 23:22:56 52° SSE
GP-B 3.8 23:21:25 10° NNE 23:25:35 39° E 23:26:01 38° E
Cosmos 1943 Rocket 2.8 23:21:15 10° NNW 23:26:36 48° ENE 23:28:53 31° ESE
Meteor 1-4 Rocket 2.7 23:23:35 10° N 23:26:36 63° NNE 23:26:36 63° NNE
Cosmos 1441 Rocket 3.8 23:29:44 45° W 23:30:03 46° WNW 23:33:45 10° N
ALOS 2 2.5 23:35:17 66° SW 23:35:42 72° WSW 23:40:05 10° NNW
Tsikada Rocket 3.9 23:34:13 46° S 23:36:14 81° E 23:42:25 10° N
SL-4 R/B 3.4 23:34:00 10° W 23:37:43 35° NNW 23:41:12 10° NE
USA 229 DEB 3.8 23:38:45 42° SSE 23:40:07 49° ESE 23:46:33 10° NE
USA 229 3.8 23:38:53 42° SSE 23:40:14 48° ESE 23:46:39 10° NE
Cosmos 1703 4.5 23:44:01 31° W 23:44:35 32° WNW 23:48:11 10° N
NOSS 3-1 (C) 3.1 23:46:44 50° SSW 23:48:15 83° SE 23:54:25 10° NE
Cosmos 1626 Rocket 4.0 23:49:24 48° WSW 23:50:05 54° WNW 23:54:26 10° N
Cosmos 724 4.3 23:46:32 10° NW 23:52:41 73° WSW 23:54:21 49° S
Cosmos 1408 4.0 23:53:09 28° E 23:53:09 28° E 23:56:00 10° NNE
Cosmos 1825 4.2 23:54:28 18° E 23:54:28 18° E 23:56:59 10° NE
